EW5029 Weather Reports


time (UTC)temp
C
wind
direction
speed
KPH
gust
KPH
rain 1hr
cm
rain 24hr
cm
rain mn
cm
humidity
%
barometer
mb
20260510162508 12 31 6.4 17.7 0.00 0.00 0.00 69 1013.6
20260510162010 12 19 6.4 17.7 0.00 0.00 0.00 70 1013.6
20260510161510 12 10 4.8 17.7 0.00 0.00 0.00 70 1013.7
20260510161009 13 52 6.4 17.7 0.00 0.00 0.00 69 1013.7
20260510160507 13 13 4.8 16.1 0.00 0.00 0.00 69 1013.7
20260510160008 13 338 4.8 16.1 0.00 0.00 0.00 68 1013.7
20260510155509 13 28 3.2 16.1 0.00 0.00 0.00 68 1013.7
20260510155007 13 306 6.4 16.1 0.00 0.00 0.00 68 1013.9
20260510154506 13 21 6.4 16.1 0.00 0.00 0.00 68 1013.8
20260510154004 13 286 3.2 20.9 0.00 0.00 0.00 69 1013.8
20260510153508 13 46 6.4 20.9 0.00 0.00 0.00 68 1013.8
20260510153005 13 5 6.4 19.3 0.00 0.00 0.00 67 1013.9
20260510152504 13 66 4.8 19.3 0.00 0.00 0.00 67 1014.0
20260510152002 13 48 4.8 14.5 0.00 0.00 0.00 68 1014.0
20260510151503 13 46 4.8 19.3 0.00 0.00 0.00 67 1014.0
20260510151002 14 275 8.0 19.3 0.00 0.00 0.00 65 1014.1
20260510150503 15 5 8.0 17.7 0.00 0.00 0.00 65 1014.2
20260510150001 15 58 4.8 16.1 0.00 0.00 0.00 66 1014.2
20260510145559 14 348 4.8 14.5 0.00 0.00 0.00 67 1014.2
20260510145059 14 341 4.8 16.1 0.00 0.00 0.00 67 1014.4
20260510144559 14 15 4.8 16.1 0.00 0.00 0.00 66 1014.4
20260510144059 14 46 4.8 19.3 0.00 0.00 0.00 67 1014.4
20260510143557 14 63 4.8 19.3 0.00 0.00 0.00 66 1014.5
20260510143109 14 49 3.2 19.3 0.00 0.00 0.00 67 1014.5
20260510142558 14 11 4.8 19.3 0.00 0.00 0.00 66 1014.5
20260510142057 15 350 6.4 14.5 0.00 0.00 0.00 66 1014.4
20260510141601 15 70 6.4 16.1 0.00 0.00 0.00 66 1014.4
20260510141056 15 360 6.4 16.1 0.00 0.00 0.00 64 1014.4
20260510140658 15 77 4.8 14.5 0.00 0.00 0.00 64 1014.5
20260510140055 15 48 3.2 14.5 0.00 0.00 0.00 64 1014.4
20260510135557 15 329 4.8 14.5 0.00 0.00 0.00 65 1014.5
20260510135054 15 315 1.6 17.7 0.00 0.00 0.00 65 1014.5
20260510134558 15 38 6.4 16.1 0.00 0.00 0.00 64 1014.6
20260510134056 15 277 4.8 22.5 0.00 0.00 0.00 64 1014.6
20260510133551 15 27 4.8 22.5 0.00 0.00 0.00 63 1014.6
20260510133051 15 38 9.7 19.3 0.00 0.00 0.00 62 1014.7
20260510132553 15 280 4.8 12.9 0.00 0.00 0.00 64 1014.7
20260510132050 15 72 4.8 16.1 0.00 0.00 0.00 63 1014.9
20260510131552 16 306 3.2 11.3 0.00 0.00 0.00 62 1014.9
20260510131049 16 306 3.2 17.7 0.00 0.00 0.00 62 1014.9
20260510130548 16 263 4.8 19.3 0.00 0.00 0.00 61 1015.0
20260510130048 15 286 4.8 19.3 0.00 0.00 0.00 63 1015.0
20260510125550 15 94 6.4 17.7 0.00 0.00 0.00 61 1015.1
20260510125048 15 78 4.8 14.5 0.00 0.00 0.00 61 1015.1
20260510124550 15 267 4.8 17.7 0.00 0.00 0.00 61 1015.1
20260510124046 16 271 6.4 27.4 0.00 0.00 0.00 61 1015.1
20260510123546 16 32 6.4 17.7 0.00 0.00 0.00 61 1015.2
20260510123046 16 74 6.4 17.7 0.00 0.00 0.00 60 1015.1
20260510122545 16 288 3.2 16.1 0.00 0.00 0.00 58 1015.3
20260510122044 16 27 6.4 17.7 0.00 0.00 0.00 60 1015.2
20260510121544 16 32 8.0 17.7 0.00 0.00 0.00 60 1015.3
20260510121046 16 310 4.8 19.3 0.00 0.00 0.00 61 1015.4
20260510120541 16 344 6.4 22.5 0.00 0.00 0.00 58 1015.5
20260510120041 16 334 8.0 22.5 0.00 0.00 0.00 60 1015.5
20260510115541 16 69 3.2 17.7 0.00 0.00 0.00 61 1015.6
20260510115040 16 265 4.8 17.7 0.00 0.00 0.00 60 1015.6
20260510114540 16 325 4.8 17.7 0.00 0.00 0.00 60 1015.6
20260510114038 16 220 1.6 16.1 0.00 0.00 0.00 64 1015.6
20260510113538 15 65 4.8 17.7 0.00 0.00 0.00 62 1015.5
20260510113037 15 282 4.8 17.7 0.00 0.00 0.00 62 1015.7
20260510112537 15 348 6.4 16.1 0.00 0.00 0.00 62 1015.8
20260510112037 16 294 3.2 12.9 0.00 0.00 0.00 63 1015.8
20260510111541 16 346 4.8 16.1 0.00 0.00 0.00 63 1015.9
20260510111033 15 34 4.8 16.1 0.00 0.00 0.00 63 1016.0
20260510110532 15 346 8.0 16.1 0.00 0.00 0.00 62 1016.0
20260510110037 15 57 6.4 14.5 0.00 0.00 0.00 62 1016.0
20260510105531 15 73 4.8 14.5 0.00 0.00 0.00 64 1016.0
20260510105030 15 333 3.2 12.9 0.00 0.00 0.00 65 1016.0
20260510104533 15 328 4.8 16.1 0.00 0.00 0.00 66 1016.2
20260510104029 15 46 6.4 16.1 0.00 0.00 0.00 66 1016.2
20260510103529 15 67 4.8 12.9 0.00 0.00 0.00 64 1016.2
20260510103028 15 17 3.2 12.9 0.00 0.00 0.00 67 1016.2
20260510102528 15 279 4.8 12.9 0.00 0.00 0.00 66 1016.3
20260510102026 15 301 4.8 16.1 0.00 0.00 0.00 67 1016.3
20260510101524 15 275 4.8 16.1 0.00 0.00 0.00 67 1016.3
20260510101023 14 36 4.8 9.7 0.00 0.00 0.00 67 1016.4
20260510100523 14 295 3.2 12.9 0.00 0.00 0.00 67 1016.5
20260510100023 14 61 4.8 12.9 0.00 0.00 0.00 69 1016.4
20260510095522 14 70 1.6 14.5 0.00 0.00 0.00 70 1016.5
20260510095023 14 69 4.8 14.5 0.00 0.00 0.00 70 1016.5
20260510094522 13 9 4.8 24.1 0.00 0.00 0.00 71 1016.5
20260510094020 13 58 4.8 24.1 0.00 0.00 0.00 72 1016.5
20260510093522 14 304 4.8 12.9 0.00 0.00 0.00 70 1016.4
20260510093020 14 57 4.8 14.5 0.00 0.00 0.00 69 1016.5
20260510092520 14 293 3.2 12.9 0.00 0.00 0.00 68 1016.5
20260510092018 14 44 3.2 19.3 0.00 0.00 0.00 70 1016.5
20260510091518 14 344 1.6 19.3 0.00 0.00 0.00 70 1016.6
20260510091017 14 282 4.8 14.5 0.00 0.00 0.00 70 1016.6
20260510090517 14 38 3.2 14.5 0.00 0.00 0.00 70 1016.6
20260510090018 14 306 4.8 16.1 0.00 0.00 0.00 70 1016.6
20260510085516 14 269 3.2 17.7 0.00 0.00 0.00 70 1016.6
20260510085014 14 22 4.8 17.7 0.00 0.00 0.00 72 1016.7
20260510084617 14 21 6.4 12.9 0.00 0.00 0.00 71 1016.8
20260510084013 13 296 3.2 12.9 0.00 0.00 0.00 73 1016.8
20260510083517 13 319 4.8 12.9 0.00 0.00 0.00 73 1016.8
20260510083013 13 281 1.6 9.7 0.00 0.00 0.00 73 1016.8
20260510082512 14 293 1.6 11.3 0.00 0.00 0.00 73 1016.8
20260510082012 14 343 1.6 12.9 0.00 0.00 0.00 73 1016.8
20260510081532 14 310 3.2 9.7 0.00 0.00 0.00 73 1016.9
20260510081010 13 46 1.6 19.3 0.00 0.00 0.00 73 1016.9
20260510080509 13 58 4.8 19.3 0.00 0.00 0.00 72 1016.9
20260510080012 13 304 4.8 9.7 0.00 0.00 0.00 71 1016.8
20260510075508 13 291 3.2 9.7 0.00 0.00 0.00 72 1016.9
20260510075008 13 296 3.2 20.9 0.00 0.00 0.00 73 1016.9
20260510074508 13 278 4.8 20.9 0.00 0.00 0.00 72 1016.8
20260510074012 13 360 3.2 11.3 0.00 0.00 0.00 72 1016.8
20260510073511 13 24 3.2 12.9 0.00 0.00 0.00 72 1016.7
20260510073006 13 347 3.2 9.7 0.00 0.00 0.00 72 1016.8
20260510072508 13 309 3.2 9.7 0.00 0.00 0.00 73 1016.8
20260510072004 13 52 1.6 16.1 0.00 0.00 0.00 73 1016.8
20260510071502 13 78 3.2 16.1 0.00 0.00 0.00 71 1016.8
20260510071001 12 59 3.2 14.5 0.00 0.00 0.00 71 1016.8
20260510070600 12 296 4.8 14.5 0.00 0.00 0.00 72 1016.9
20260510070059 12 34 4.8 12.9 0.00 0.00 0.00 72 1017.0
20260510065600 12 63 3.2 12.9 0.00 0.00 0.00 73 1017.0
20260510065058 12 297 4.8 14.5 0.00 0.00 0.00 73 1016.9
20260510064602 12 317 1.6 14.5 0.00 0.00 0.00 75 1016.9
20260510064057 12 348 1.6 12.9 0.00 0.00 0.00 76 1017.0
20260510063557 12 294 1.6 14.5 0.00 0.00 0.00 76 1017.0
20260510063057 12 63 4.8 14.5 0.00 0.00 0.00 76 1017.0
20260510062556 12 28 3.2 9.7 0.00 0.00 0.00 78 1017.1
20260510062056 11 334 1.6 8.0 0.00 0.00 0.00 78 1017.0
20260510061556 11 25 3.2 8.0 0.00 0.00 0.00 79 1016.9
20260510061055 11 312 1.6 12.9 0.00 0.00 0.00 80 1016.9
20260510060556 11 290 0.0 12.9 0.00 0.00 0.00 80 1016.9
20260510060056 11 337 0.0 8.0 0.00 0.00 0.00 80 1016.9
20260510055555 11 271 1.6 8.0 0.00 0.00 0.00 81 1017.0
20260510055053 11 46 3.2 8.0 0.00 0.00 0.00 81 1017.0
20260510054553 11 271 0.0 6.4 0.00 0.00 0.00 82 1017.1
20260510054054 11 308 1.6 8.0 0.00 0.00 0.00 82 1017.1
20260510053552 10 289 1.6 8.0 0.00 0.00 0.00 82 1017.2
20260510053106 10 312 1.6 6.4 0.00 0.00 0.00 82 1017.1
20260510052552 10 308 1.6 6.4 0.00 0.00 0.00 82 1017.0
20260510052052 10 275 1.6 6.4 0.00 0.00 0.00 83 1017.0
20260510051602 10 305 1.6 6.4 0.00 0.00 0.00 83 1017.0
20260510051049 10 10 1.6 6.4 0.00 0.00 0.00 83 1017.0
20260510050549 10 317 0.0 4.8 0.00 0.00 0.00 83 1017.0
20260510050059 10 300 1.6 4.8 0.00 0.00 0.00 83 1017.0
20260510045549 10 306 0.0 4.8 0.00 0.00 0.00 83 1016.8
20260510045054 10 267 1.6 4.8 0.00 0.00 0.00 83 1016.8
20260510044602 10 330 0.0 8.0 0.00 0.00 0.00 84 1016.8
20260510044048 10 288 1.6 4.8 0.00 0.00 0.00 84 1016.7
20260510043548 10 311 1.6 4.8 0.00 0.00 0.00 84 1016.6
20260510043054 10 303 0.0 6.4 0.00 0.00 0.00 84 1016.6
20260510042548 10 305 1.6 6.4 0.00 0.00 0.00 84 1016.6
20260510042049 10 350 0.0 6.4 0.00 0.00 0.00 84 1016.6
20260510041545 10 328 0.0 6.4 0.00 0.00 0.00 84 1016.7
20260510041044 10 297 1.6 4.8 0.00 0.00 0.00 84 1016.7
20260510040543 10 36 0.0 6.4 0.00 0.00 0.00 84 1016.7
20260510040044 10 317 1.6 6.4 0.00 0.00 0.00 84 1016.7
20260510035541 10 313 1.6 3.2 0.00 0.00 0.00 84 1016.7
20260510035041 10 341 0.0 4.8 0.00 0.00 0.00 84 1016.7
20260510034542 10 311 1.6 4.8 0.00 0.00 0.00 85 1016.8
20260510034040 10 318 0.0 4.8 0.00 0.00 0.00 85 1016.8
20260510033538 10 304 1.6 4.8 0.00 0.00 0.00 85 1016.8
20260510033055 10 331 0.0 6.4 0.00 0.00 0.00 85 1016.9
20260510032541 10 299 0.0 6.4 0.00 0.00 0.00 85 1017.0
20260510032037 10 317 1.6 6.4 0.00 0.00 0.00 85 1016.9
20260510031539 10 294 1.6 4.8 0.00 0.00 0.00 86 1017.1
20260510031034 10 313 0.0 3.2 0.00 0.00 0.00 86 1017.2
20260510030533 10 315 0.0 6.4 0.00 0.00 0.00 86 1017.2
20260510030042 10 293 0.0 3.2 0.00 0.00 0.00 86 1017.3
20260510025533 10 329 0.0 4.8 0.00 0.00 0.00 86 1017.3
20260510025035 10 38 0.0 4.8 0.00 0.00 0.00 86 1017.2
20260510024646 10 291 0.0 3.2 0.00 0.00 0.00 86 1017.2
20260510024031 10 297 0.0 3.2 0.00 0.00 0.00 86 1017.2
20260510023531 10 306 0.0 3.2 0.00 0.00 0.00 86 1017.2
20260510023031 10 313 0.0 4.8 0.00 0.00 0.00 85 1017.1
20260510022530 10 319 0.0 4.8 0.00 0.00 0.00 85 1017.1
20260510022034 10 308 1.6 4.8 0.00 0.00 0.00 85 1017.1
20260510021532 10 335 0.0 4.8 0.00 0.00 0.00 85 1017.1
20260510021028 10 328 0.0 4.8 0.00 0.00 0.00 85 1017.2
20260510020528 10 315 1.6 4.8 0.00 0.00 0.00 85 1017.2
20260510020029 10 320 0.0 4.8 0.00 0.00 0.00 84 1017.2
20260510015527 10 307 1.6 4.8 0.00 0.00 0.00 84 1017.1
20260510015031 10 333 0.0 4.8 0.00 0.00 0.00 84 1017.1
20260510014534 10 288 0.0 4.8 0.00 0.00 0.00 84 1017.1
20260510014028 10 326 0.0 4.8 0.00 0.00 0.00 84 1017.2
20260510013525 10 348 1.6 4.8 0.00 0.00 0.00 84 1017.3
20260510013025 10 315 0.0 3.2 0.00 0.00 0.00 84 1017.3
20260510012525 10 46 0.0 3.2 0.00 0.00 0.00 84 1017.3
20260510012024 10 313 0.0 4.8 0.00 0.00 0.00 84 1017.3
20260510011524 10 292 0.0 4.8 0.00 0.00 0.00 84 1017.2
20260510011024 10 314 0.0 6.4 0.00 0.00 0.00 83 1017.3
20260510010523 10 321 0.0 6.4 0.00 0.00 0.00 83 1017.3
20260510010026 10 312 0.0 4.8 0.00 0.00 0.00 83 1017.3
20260510005522 10 292 1.6 4.8 0.00 0.00 0.00 83 1017.4
20260510005023 11 302 0.0 4.8 0.00 0.00 0.00 83 1017.4
20260510004521 11 25 0.0 3.2 0.00 0.00 0.00 82 1017.4
20260510004020 11 280 0.0 3.2 0.00 0.00 0.00 82 1017.4
20260510003520 11 324 0.0 3.2 0.00 0.00 0.00 82 1017.5
20260510003019 11 299 0.0 6.4 0.00 0.00 0.00 81 1017.5
20260510002520 11 42 1.6 6.4 0.00 0.00 0.00 81 1017.5
20260510002022 11 298 0.0 4.8 0.00 0.00 0.00 81 1017.4
20260510001518 11 324 1.6 3.2 0.00 0.00 0.00 81 1017.5
20260510001017 11 319 1.6 3.2 0.00 0.00 0.00 81 1017.4
20260510000516 11 327 0.0 3.2 0.00 0.00 0.00 80 1017.5
20260510000018 11 325 0.0 4.8 0.00 0.00 0.00 80 1017.5
20260509235514 11 296 1.6 4.8 0.00 0.00 0.00 80 1017.6
20260509235015 11 5 0.0 4.8 0.00 0.00 0.00 80 1017.7
20260509234520 11 285 1.6 4.8 0.00 0.00 0.00 80 1017.7
20260509234016 11 330 0.0 4.8 0.00 0.00 0.00 79 1017.7
20260509233513 11 342 0.0 6.4 0.00 0.00 0.00 79 1017.7
20260509233012 11 328 1.6 6.4 0.00 0.00 0.00 79 1017.7
20260509232511 11 306 0.0 3.2 0.00 0.00 0.00 78 1017.8
20260509232011 12 336 0.0 3.2 0.00 0.00 0.00 78 1017.8
20260509231513 12 315 0.0 4.8 0.00 0.00 0.00 78 1017.8
20260509231009 12 305 0.0 4.8 0.00 0.00 0.00 78 1017.8
20260509230509 12 317 0.0 4.8 0.00 0.00 0.00 78 1017.8
20260509230017 12 300 1.6 4.8 0.00 0.00 0.00 77 1017.7
20260509225509 12 343 0.0 4.8 0.00 0.00 0.00 77 1017.7
20260509225009 12 294 0.0 4.8 0.00 0.00 0.00 77 1017.8
20260509224507 12 350 0.0 4.8 0.00 0.00 0.00 77 1017.7
20260509224006 12 323 1.6 4.8 0.00 0.00 0.00 76 1017.8
20260509223506 12 339 1.6 6.4 0.00 0.00 0.00 76 1017.8
20260509223008 12 298 0.0 6.4 0.00 0.00 0.00 76 1017.8
20260509222505 12 5 1.6 6.4 0.00 0.00 0.00 76 1017.8
20260509222004 12 25 1.6 8.0 0.00 0.00 0.00 76 1017.9
20260509221505 12 9 1.6 9.7 0.00 0.00 0.00 75 1017.8
20260509221004 12 17 3.2 9.7 0.00 0.00 0.00 75 1017.8
20260509220503 12 15 0.0 6.4 0.00 0.00 0.00 75 1017.8
20260509220002 12 49 1.6 6.4 0.00 0.00 0.00 75 1017.8
20260509215502 12 65 1.6 9.7 0.00 0.00 0.00 75 1017.8
20260509215001 12 340 1.6 6.4 0.00 0.00 0.00 75 1017.9
20260509214502 12 34 1.6 4.8 0.00 0.00 0.00 75 1017.8
20260509214101 12 292 1.6 4.8 0.00 0.00 0.00 75 1017.8
20260509213601 12 5 0.0 6.4 0.00 0.00 0.00 75 1018.0
20260509213002 13 33 1.6 6.4 0.00 0.00 0.00 75 1018.0
20260509212600 13 350 1.6 6.4 0.00 0.00 0.00 75 1018.0
20260509212100 13 5 1.6 6.4 0.00 0.00 0.00 74 1018.0
20260509211606 13 304 1.6 4.8 0.00 0.00 0.00 74 1018.1
20260509211059 13 350 1.6 6.4 0.00 0.00 0.00 74 1018.0
20260509210659 13 331 1.6 8.0 0.00 0.00 0.00 74 1018.0
20260509205559 13 265 0.0 8.0 0.00 0.00 0.00 73 1018.0
20260509205058 13 360 1.6 8.0 0.00 0.00 0.00 73 1017.8
20260509204558 13 281 1.6 8.0 0.00 0.00 0.00 73 1017.8
20260509204058 13 62 1.6 8.0 0.00 0.00 0.00 73 1017.8
20260509203557 13 54 1.6 6.4 0.00 0.00 0.00 72 1017.9
20260509203111 13 355 1.6 6.4 0.00 0.00 0.00 72 1018.0
20260509202558 13 24 1.6 6.4 0.00 0.00 0.00 72 1018.1
20260509202100 13 300 1.6 16.1 0.00 0.00 0.00 71 1018.0
20260509201604 13 84 1.6 16.1 0.00 0.00 0.00 70 1017.9
20260509201058 14 28 1.6 8.0 0.00 0.00 0.00 70 1017.9
20260509200556 14 50 1.6 8.0 0.00 0.00 0.00 68 1017.9
20260509200108 14 11 1.6 6.4 0.00 0.00 0.00 67 1017.9
20260509195557 14 18 0.0 4.8 0.00 0.00 0.00 66 1017.9
20260509195056 14 322 0.0 6.4 0.00 0.00 0.00 65 1017.9
20260509194556 15 309 0.0 4.8 0.00 0.00 0.00 64 1017.8
20260509194056 15 299 1.6 9.7 0.00 0.00 0.00 64 1017.8
20260509193556 15 37 3.2 9.7 0.00 0.00 0.00 63 1017.7
20260509193113 15 296 0.0 4.8 0.00 0.00 0.00 63 1017.7
20260509192555 15 13 0.0 8.0 0.00 0.00 0.00 63 1017.7
20260509192055 15 325 1.6 8.0 0.00 0.00 0.00 62 1017.6
20260509191555 15 17 1.6 4.8 0.00 0.00 0.00 61 1017.5
20260509191054 15 318 0.0 4.8 0.00 0.00 0.00 60 1017.5
20260509190554 15 304 1.6 4.8 0.00 0.00 0.00 59 1017.5
20260509190056 15 46 0.0 4.8 0.00 0.00 0.00 57 1017.4
20260509185554 15 309 1.6 8.0 0.00 0.00 0.00 56 1017.3
20260509185054 16 317 1.6 4.8 0.00 0.00 0.00 55 1017.4
20260509184607 16 306 0.0 11.3 0.00 0.00 0.00 54 1017.4
20260509184054 16 323 1.6 11.3 0.00 0.00 0.00 54 1017.4
20260509183653 16 304 1.6 8.0 0.00 0.00 0.00 53 1017.3
20260509183053 16 47 1.6 6.4 0.00 0.00 0.00 53 1017.3
20260509182552 16 272 1.6 6.4 0.00 0.00 0.00 53 1017.3
20260509182052 16 63 1.6 6.4 0.00 0.00 0.00 53 1017.2
20260509181553 16 20 0.0 4.8 0.00 0.00 0.00 54 1017.2
20260509181051 16 290 0.0 4.8 0.00 0.00 0.00 53 1017.3
20260509180554 16 67 1.6 6.4 0.00 0.00 0.00 53 1017.4
20260509180050 16 51 1.6 6.4 0.00 0.00 0.00 52 1017.3
20260509175550 16 56 1.6 4.8 0.00 0.00 0.00 51 1017.2
20260509175050 17 319 1.6 8.0 0.00 0.00 0.00 51 1017.2
20260509174552 17 314 1.6 8.0 0.00 0.00 0.00 51 1017.4
20260509174050 17 346 0.0 6.4 0.00 0.00 0.00 51 1017.4
20260509173650 17 344 1.6 6.4 0.00 0.00 0.00 51 1017.4
20260509173104 17 306 1.6 6.4 0.00 0.00 0.00 52 1017.5
20260509172550 17 355 0.0 8.0 0.00 0.00 0.00 51 1017.5
20260509172050 17 292 1.6 8.0 0.00 0.00 0.00 51 1017.5
20260509171612 17 53 1.6 6.4 0.00 0.00 0.00 51 1017.5
20260509171048 17 321 0.0 6.4 0.00 0.00 0.00 50 1017.5
20260509170549 17 42 0.0 6.4 0.00 0.00 0.00 50 1017.4
20260509170048 17 5 1.6 8.0 0.00 0.00 0.00 51 1017.4
20260509165549 17 44 0.0 8.0 0.00 0.00 0.00 51 1017.4
20260509165047 17 360 1.6 9.7 0.00 0.00 0.00 50 1017.4
20260509164547 17 42 1.6 9.7 0.00 0.00 0.00 50 1017.3
20260509164050 17 52 3.2 12.9 0.00 0.00 0.00 50 1017.3
20260509163547 17 350 1.6 12.9 0.00 0.00 0.00 50 1017.3
20260509163053 17 302 1.6 8.0 0.00 0.00 0.00 51 1017.3